{"data":{"norad_id":58602,"intl_designator":"2023-200P","name":"STARLINK-31071","alt_names":[],"object_type":"PAYLOAD","status":"ACTIVE","operator":null,"country":"US","launch_date":"2023-12-19","launch_site_code":"AFETR","launch_vehicle":null,"mission":null,"orbit_class":"UNKNOWN","rcs_meters":null,"size_class":null,"mass_kg":null,"dimensions":null,"purposes":["comms"],"wikipedia_slug":null,"has_3d_model":false,"image_url":null,"decayed_at":null,"tle_current":{"epoch":"2026-09-20T07:13:31.988352Z","epoch_age_seconds":166982,"freshness":"FRESH","line1":"1 58602U 23200P   26263.30106468 -.00000838  00000+0 -20926-4 0  9998","line2":"2 58602  43.0035 349.6144 0001296 267.4426  92.6278 15.27572784155258","mean_motion":15.27572784,"eccentricity":0.0001296,"inclination_deg":43.0035,"raan_deg":349.6144,"arg_perigee_deg":267.4426,"mean_anomaly_deg":92.6278,"bstar":-2.0926e-5,"rev_number":15525,"period_min":94.267194014109,"perigee_km":482.18149090629,"apogee_km":483.95991594302,"semimajor_km":6861.2077034247,"source":"CELESTRAK","updated_at":"2026-09-21T09:00:33.919392Z"}}}